Location: Mohawk View
(42.7837°N, 73.7885°W)
Time: 01:36:39
(UTC+00:00)

COSMOS 2428 - Pass Details

Date: 17 June 2021
Orbit: 845 x 858 km, 70.9° (Epoch: 02 August)

Event Time Altitude Azimuth Distance (km) Brightness Sun altitude
Exits shadow 03:06:54 33° 174° (S) 1,405 3.3 -19.2°
Maximum altitude 03:09:21 59° 110° (ESE) 986 2.8 -19.4°
Drops below altitude 10° 03:14:59 10° 32° (NNE) 2,500 5.6 -19.8°
Sets 03:17:28 0° 29° (NNE) 3,440 6.4 -20.0°
